Location: Koussan�
(15.2012°N, 12.5548°W)
Time: 18:03:58
(UTC+00:00)

Delta 2 Rocket - Pass Details

Date: 20 October 2020
Orbit: 890 x 1677 km, 26.4° (Epoch: 01 December)

Event Time Altitude Azimuth Distance (km) Brightness Sun altitude
Rises 20:34:05 0° 240° (WSW) 4,383 8.3 -31.3°
Reaches altitude 10° 20:37:18 10° 238° (WSW) 3,288 7.4 -32.1°
Enters shadow 20:44:22 64° 203° (SSW) 1,244 4.5 -33.8°
